Regional Weather Roundup
Issued by NWS

Home | Current Version | Previous Version | Graphics & Text | Print | Product List | Glossary On
Versions: 1 2 3 4 5 6 7 8 9 10 11 12 13 14 15 16 17 18 19 20 21 22 23 24 25 26 27 28 29 30 31 32 33 34 35 36 37 38 39 40 41 42 43 44 45 46 47 48 49 50
000
ASUS43 KLSX 180507
RWRMO

WEATHER SUMMARY FOR MISSOURI
NATIONAL WEATHER SERVICE SPRINGFIELD MO
1200 AM CDT SAT APR 18 2015

NOTE: "FAIR" INDICATES FEW OR NO CLOUDS BELOW 12,000 FEET WITH NO
       SIGNIFICANT WEATHER AND/OR OBSTRUCTIONS TO VISIBILITY.
       CURRENT SKY AND/OR WEATHER CONDITIONS ARE NOT AVAILABLE FOR
       CHILLICOTHE AND FARMINGTON.

MOZ001>031-035>038-043-044-053-054-180600-
...NORTHERN AND WESTERN MISSOURI...

CITY           SKY/WX    TMP DP  RH WIND       PRES   REMARKS
KANSAS CTY INT MOCLDY    64  59  83 E6        29.98F
KANSAS C DTWN  CLOUDY    65  60  84 CALM      29.97S
LEE`S SUMMIT   MOCLDY    69  57  65 CALM      29.98F
ST JOSEPH      MOCLDY    60  55  83 CALM      29.98S
CHILLICOTHE      N/A     65  57  75 SE3       30.00R
KIRKSVILLE     PTCLDY    65  55  70 SE5       30.02R

$$
MOZ066>068-077>081-088>096-101>105-180600-
...SOUTHWEST MISSOURI...

CITY           SKY/WX    TMP DP  RH WIND       PRES   REMARKS
SPRINGFIELD    CLOUDY    64  58  80 SE7       29.99F
JOPLIN         CLOUDY    64  60  87 E3        29.96F

$$
MOZ032>034-039>042-045>050-055>058-069>072-180600-
...CENTRAL MISSOURI...

CITY           SKY/WX    TMP DP  RH WIND       PRES   REMARKS
COLUMBIA       PTCLDY    66  55  67 E6        30.00R
JEFFERSON CITY PTCLDY    69  56  62 E7        29.99R
ROLLA          PTCLDY    65  53  65 SE9       30.00S
SEDALIA        MOCLDY    68  55  63 E5        29.99S
WHITEMAN AFB   MOCLDY    65  56  72 S2        29.97F
WARRENSBURG    CLOUDY    66  55  68 CALM      29.98S
OSAGE BEACH    PTCLDY    66  54  63 SE5       29.99S

$$
MOZ051-052-059>065-180600-
...EAST CENTRAL MISSOURI...

CITY           SKY/WX    TMP DP  RH WIND       PRES   REMARKS
ST LOUIS INTL  PTCLDY    66  55  67 E7        30.02S
SPIRIT OF STL  PTCLDY    59  55  87 CALM      30.01R
ST CHARLES     PTCLDY    61  55  81 S3        30.01S

$$
MOZ072>076-082>087-097>100-106>115-180600-
...SOUTH CENTRAL AND SOUTHEAST MISSOURI...

CITY           SKY/WX    TMP DP  RH WIND       PRES   REMARKS
CAPE GIRARDEAU CLEAR     60  58  92 E3        30.02F
FARMINGTON     PTCLDY    61  55  82 SE5       30.07F
POPLAR BLUFF   MOCLDY    59  57  93 CALM      30.00F FOG
WEST PLAINS    CLOUDY    63  59  87 E6        30.04R

$$


USA.gov is the U.S. government's official web portal to all federal, state and local government web resources and services.